[[{"header":{"parameterUnit":"m.s-1","parameterCategory":1,"la1":30.2991,"la2":30.254,"lo1":-89.0895,"lo2":-89.0444,"dy":0.0017,"dx":0.0017,"nx":28,"ny":28,"refTime":"2024-10-01T03:00:00:Z","depth":0,"parameterNumber":2,"parameterNumberName":"U-component_of_WINDS"},"data":[0,0,0,0,0,0,0,0,0,0,0,0,0,0,0,0,0,0,0,0,0,0,0,0,0,0,0,0,0,0,0,0,0,0,0,0,0,0,0,0,0,0,0,0,0,0,0,0,0,0,0,0,0,0,0,0,0,0,1.1838,1.1839,0,1.1925,1.1926,1.1927,1.1931,1.1929,1.1928,1.1927,1.2019,1.2022,1.2025,0,0,0,0,0,0,0,0,0,0,0,0,0,1.1675,1.1678,1.1838,1.1839,1.184,1.1925,1.1926,1.1928,1.1931,1.1929,1.1928,1.1927,1.2018,1.2022,1.2026,0,0,0,0,0,0,0,0,0,0,0,0,0,1.1753,1.1679,1.1837,1.1852,1.1854,1.1925,1.1926,1.1928,1.1931,1.1929,1.1928,1.1926,1.2016,1.2021,1.2026,1.209,0,0,1.2042,1.2044,0,0,0,0,0,0,0,0,1.1748,1.1759,1.1848,1.1851,1.1853,1.1915,1.1903,1.1982,1.1931,1.1902,1.1927,1.1926,1.1986,1.1993,1.2013,1.2094,1.2098,1.2042,1.2046,1.2048,1.2049,0,0,0,0,0,0,0,1.1743,1.1755,1.1872,1.185,1.1853,1.1854,1.1864,1.1918,1.1952,1.1904,1.1905,1.1915,1.1987,1.2008,1.2015,1.2099,1.2042,1.2047,1.205,1.2052,1.2238,1.224,0,0,0,0,0,0,1.1735,1.175,1.187,1.1875,1.1796,1.1859,1.1869,1.1897,1.1951,1.1958,1.1916,1.1915,1.2,1.2009,1.2019,1.2097,1.2048,1.2053,1.2056,1.2236,1.2238,1.224,0,0,0,0,0,0,1.1731,1.1745,1.1866,1.1813,1.1828,1.1863,1.1895,1.19,1.1921,1.196,1.1966,1.1932,1.1999,1.2011,1.2072,1.21,1.2055,1.206,1.2234,1.2237,1.2239,1.2253,0,0,0,0,0,0,1.1726,1.1744,1.1767,1.1813,1.1831,1.1917,1.1896,1.1902,1.193,1.1929,1.1976,1.1983,1.1999,1.2065,1.2077,1.2106,1.2064,1.2231,1.2235,1.2238,1.225,1.2256,1.2261,0,0,0,0,0,1.1721,1.1768,1.1769,1.1783,1.1861,1.1919,1.1929,1.1946,1.1932,1.1956,1.1982,1.1981,1.2095,1.2071,1.2085,1.2116,1.223,1.2234,1.2238,1.2248,1.2255,1.2261,0,0,0,0,0,0,1.1724,1.1774,1.1775,1.1839,1.1875,1.1919,1.195,1.1953,1.1994,1.1991,1.2012,1.2023,1.2083,1.2106,1.2078,1.2181,1.2161,1.2168,1.2163,1.217,1.2176,1.2168,1.2068,0,0,0,0,0,1.1733,1.1774,1.1816,1.1868,1.1886,1.1915,1.1941,1.1951,1.1989,1.2004,1.2034,1.2072,1.2116,1.2145,1.2188,1.2254,1.2265,1.2283,1.2288,1.2292,1.2298,1.2336,1.2344,1.2254,1.2254,1.2254,0,0,1.175,1.1782,1.1807,1.187,1.1898,1.1942,1.1928,1.1974,1.2007,1.2012,1.2071,1.2094,1.2138,1.2202,1.2231,1.2222,1.2326,1.2298,1.2301,1.2304,1.2341,1.235,1.2357,1.2257,1.2256,1.2256,0,0,1.1803,1.1832,1.1879,1.1908,1.1952,1.1972,1.1983,1.2028,1.2044,1.2103,1.2108,1.2148,1.2224,1.2255,1.228,1.2348,1.2349,1.2362,1.2389,1.2426,1.2433,1.2439,1.2463,1.2472,1.2368,1.2368,1.2368,0,1.1819,1.1884,1.1902,1.1949,1.1977,1.1984,1.2032,1.206,1.2116,1.2135,1.2125,1.2221,1.225,1.2322,1.2339,1.2359,1.2374,1.2356,1.243,1.2437,1.2443,1.2466,1.2476,1.2369,1.2369,1.2369,1.2368,0,1.1902,1.1947,1.198,1.2034,1.2065,1.2112,1.2139,1.2169,1.2178,1.2199,1.226,1.2296,1.2347,1.2365,1.2374,1.2439,1.2432,1.2426,1.2406,1.2453,1.2475,1.2484,1.2371,1.237,1.237,1.2369,0,0,1.1958,1.2023,1.2034,1.2059,1.2109,1.2145,1.2194,1.2243,1.2269,1.2308,1.2349,1.2414,1.2409,1.2438,1.2451,1.2483,1.2535,1.2473,1.2475,1.2483,1.261,1.2613,1.2623,1.2537,1.2539,1.254,1.2606,0,1.2017,1.2102,1.2121,1.2194,1.2237,1.2245,1.2288,1.2324,1.2345,1.2385,1.241,1.2455,1.2445,1.2463,1.2495,1.2522,1.2561,1.2518,1.2576,1.2578,1.2564,1.2635,1.2639,1.2699,1.2615,1.2616,1.2617,0,1.2096,1.2137,1.2215,1.226,1.2279,1.2317,1.2364,1.2402,1.2444,1.2458,1.2491,1.2501,1.2553,1.2532,1.2604,1.2574,1.2599,1.2617,1.2619,1.2625,1.26,1.2642,1.2719,1.2727,1.2631,1.263,1.2629,0,1.2129,1.2204,1.226,1.2282,1.2336,1.2363,1.2387,1.2427,1.2456,1.2498,1.2517,1.2565,1.2591,1.2629,1.2652,1.2634,1.2722,1.2703,1.2735,1.2735,1.2753,1.2751,1.2834,1.277,1.277,1.277,1.277,0,1.2192,1.2239,1.2276,1.231,1.2364,1.2387,1.2439,1.2464,1.25,1.254,1.2551,1.2589,1.2617,1.2659,1.2678,1.2735,1.2747,1.276,1.2764,1.2758,1.2757,1.2774,1.2771,1.2772,1.2772,1.2771,1.2771,0,1.2237,1.2263,1.2326,1.2373,1.2386,1.2424,1.2464,1.2499,1.2522,1.2573,1.2586,1.2622,1.2672,1.2699,1.2762,1.2775,1.2839,1.2841,1.2824,1.2826,1.2857,1.2853,1.2954,1.2968,1.2895,1.2896,1.2897,0,1.2275,1.2311,1.2363,1.2391,1.2415,1.246,1.249,1.2514,1.2545,1.2596,1.2625,1.2676,1.2717,1.2798,1.283,1.2878,1.2881,1.2913,1.2889,1.2882,1.2882,1.2879,1.2883,1.2917,1.2918,1.2918,1.2919,0,1.2339,1.2351,1.2393,1.2441,1.2476,1.2515,1.2553,1.2576,1.2606,1.2641,1.2692,1.2725,1.279,1.284,1.2892,1.2918,1.2924,1.2927,1.2937,1.2931,1.2919,1.2926,1.2835,1.2924,1.2923,1.2923,1.2923,1.2922,1.2382,1.2415,1.2457,1.2504,1.2536,1.2572,1.2607,1.2634,1.2677,1.2731,1.2744,1.2798,1.2841,1.2911,1.2938,1.2982,1.2976,1.299,1.2994,1.2997,1.2998,1.2913,1.2992,1.2991,1.2991,1.2991,1.2991,0,1.2447,1.2474,1.2518,1.2571,1.2609,1.2612,1.2655,1.2686,1.2734,1.2773,1.2814,1.2874,1.2924,1.296,1.3011,1.3039,1.3043,1.3052,1.3049,1.3056,1.3001,1.2987,1.3048,1.3048,1.3048,1.3048,1.3048,1.3048,1.2485,1.2541,1.2558,1.2631,1.2659,1.2712,1.2737,1.277,1.2802,1.2868,1.2909,1.2933,1.2971,1.3026,1.3072,1.3081,1.3099,1.3108,1.3117,1.3065,1.3059,1.3053,1.304,1.3111,1.3112,1.3169,1.3169,1.3169]},{"header":{"parameterUnit":"m.s-1","parameterCategory":1,"la1":30.2991,"la2":30.254,"lo1":-89.0895,"lo2":-89.0444,"dy":0.0017,"dx":0.0017,"nx":28,"ny":28,"refTime":"2024-10-01T03:00:00:Z","depth":0,"parameterNumber":3,"parameterNumberName":"V-component_of_WINDS"},"data":[0,0,0,0,0,0,0,0,0,0,0,0,0,0,0,0,0,0,0,0,0,0,0,0,0,0,0,0,0,0,0,0,0,0,0,0,0,0,0,0,0,0,0,0,0,0,0,0,0,0,0,0,0,0,0,0,0,0,1.2215,1.2217,0,1.2393,1.2395,1.2397,1.2411,1.2409,1.2407,1.2405,1.2587,1.2593,1.2599,0,0,0,0,0,0,0,0,0,0,0,0,0,1.1885,1.1891,1.2215,1.2217,1.2219,1.2392,1.2395,1.2397,1.2411,1.2409,1.2407,1.2404,1.2584,1.2592,1.26,0,0,0,0,0,0,0,0,0,0,0,0,0,1.2042,1.1893,1.2215,1.2247,1.2252,1.2392,1.2395,1.2398,1.2412,1.2409,1.2406,1.2403,1.2582,1.2591,1.2601,1.2721,0,0,1.2632,1.2636,0,0,0,0,0,0,0,0,1.2033,1.2054,1.224,1.2245,1.2251,1.2377,1.2345,1.2506,1.2412,1.2351,1.2405,1.2402,1.2519,1.2534,1.2574,1.2729,1.2737,1.2632,1.2638,1.2643,1.2646,0,0,0,0,0,0,0,1.2022,1.2046,1.2285,1.2243,1.2249,1.2252,1.2271,1.2375,1.2449,1.2356,1.2358,1.2378,1.2521,1.2564,1.2578,1.274,1.2632,1.2641,1.2647,1.2651,1.2998,1.3002,0,0,0,0,0,0,1.2005,1.2037,1.228,1.2291,1.2132,1.226,1.2282,1.2339,1.2448,1.2462,1.2381,1.2378,1.2548,1.2566,1.2584,1.273,1.2643,1.2652,1.2658,1.2995,1.2999,1.3003,0,0,0,0,0,0,1.1998,1.2027,1.2272,1.2164,1.2196,1.2269,1.2334,1.2344,1.2387,1.2467,1.248,1.2411,1.2547,1.257,1.2686,1.2736,1.2656,1.2666,1.2991,1.2996,1.3001,1.3022,0,0,0,0,0,0,1.1988,1.2024,1.2071,1.2165,1.2202,1.2372,1.2337,1.235,1.2404,1.2403,1.2498,1.2512,1.2546,1.2671,1.2696,1.2748,1.2673,1.2987,1.2994,1.2999,1.3017,1.3027,1.3035,0,0,0,0,0,1.1977,1.207,1.2073,1.2103,1.2262,1.2375,1.2396,1.2434,1.2408,1.2455,1.2506,1.2509,1.2726,1.2683,1.2711,1.2767,1.2984,1.2992,1.2999,1.3013,1.3025,1.3035,0,0,0,0,0,0,1.1981,1.2084,1.2088,1.2215,1.2286,1.2377,1.2438,1.2446,1.2526,1.2521,1.2565,1.2586,1.27,1.2745,1.2695,1.2887,1.2852,1.2866,1.2853,1.2866,1.2874,1.2861,1.2682,0,0,0,0,0,1.1996,1.208,1.2165,1.2269,1.2304,1.2365,1.2416,1.2439,1.2514,1.2544,1.2604,1.2676,1.276,1.2815,1.2898,1.3023,1.3043,1.3075,1.3084,1.3092,1.3103,1.317,1.3185,1.3027,1.3027,1.3027,0,0,1.203,1.2096,1.2147,1.2272,1.2329,1.2414,1.239,1.2482,1.2545,1.2558,1.2671,1.2716,1.28,1.292,1.2976,1.2961,1.315,1.3101,1.3106,1.3114,1.3179,1.3194,1.3207,1.3032,1.3031,1.303,0,0,1.2134,1.2193,1.2285,1.2343,1.243,1.247,1.2491,1.2581,1.2612,1.2725,1.2736,1.2811,1.2956,1.3014,1.3063,1.3185,1.319,1.3211,1.3259,1.3324,1.3336,1.3347,1.339,1.3404,1.3221,1.3221,1.3221,0,1.2164,1.2293,1.2332,1.2422,1.2476,1.2491,1.2583,1.2638,1.2747,1.2783,1.2765,1.2945,1.3003,1.3136,1.3165,1.3205,1.323,1.3201,1.3331,1.3343,1.3354,1.3395,1.3411,1.3223,1.3223,1.3223,1.3223,0,1.2325,1.2414,1.2478,1.2583,1.2644,1.2735,1.2785,1.2842,1.2859,1.2899,1.3013,1.3082,1.3177,1.321,1.3228,1.3345,1.3333,1.3322,1.3289,1.337,1.3409,1.3425,1.3226,1.3225,1.3225,1.3224,0,0,1.2439,1.2562,1.2585,1.2631,1.2727,1.2796,1.2887,1.298,1.3027,1.3101,1.3177,1.3298,1.3288,1.3343,1.3367,1.3424,1.3514,1.3406,1.3408,1.3423,1.3645,1.3652,1.367,1.3517,1.352,1.3523,1.3637,0,1.2553,1.2716,1.2751,1.2891,1.2972,1.2986,1.3064,1.3131,1.317,1.3244,1.3287,1.3372,1.3353,1.3386,1.3443,1.3491,1.3559,1.3483,1.3587,1.359,1.3566,1.369,1.3699,1.3804,1.3653,1.3656,1.3658,0,1.2709,1.2786,1.2933,1.3016,1.3051,1.3122,1.3208,1.3279,1.3353,1.3378,1.3438,1.3455,1.3548,1.3509,1.3636,1.3583,1.3628,1.3657,1.3662,1.3674,1.3629,1.3704,1.3839,1.3854,1.3682,1.368,1.3678,0,1.2775,1.2916,1.3022,1.3061,1.3161,1.3209,1.3253,1.3325,1.3377,1.3453,1.3487,1.3572,1.3618,1.3683,1.3722,1.369,1.3845,1.381,1.3867,1.3866,1.39,1.3897,1.4043,1.3929,1.3928,1.3928,1.3928,0,1.2899,1.2988,1.3053,1.3118,1.3217,1.3256,1.3353,1.3397,1.346,1.3532,1.3549,1.3616,1.3664,1.3737,1.3768,1.3868,1.3889,1.391,1.3917,1.3909,1.3906,1.3939,1.3932,1.3932,1.3931,1.3931,1.393,0,1.2991,1.3038,1.3154,1.3238,1.3261,1.333,1.3402,1.3464,1.3503,1.3594,1.3618,1.3678,1.3765,1.381,1.3919,1.3939,1.4051,1.4054,1.4026,1.4029,1.4083,1.4077,1.4255,1.428,1.4149,1.415,1.4151,0,1.3067,1.3136,1.3226,1.3276,1.3321,1.3401,1.3454,1.3494,1.3549,1.3637,1.3689,1.3776,1.3849,1.3987,1.404,1.4123,1.4127,1.4184,1.414,1.4128,1.4127,1.4123,1.4129,1.4192,1.4193,1.4194,1.4195,0,1.3196,1.3215,1.3292,1.3376,1.3439,1.3507,1.3574,1.3614,1.3664,1.3725,1.3814,1.387,1.398,1.4066,1.4152,1.4196,1.4203,1.4208,1.4225,1.4217,1.4198,1.4208,1.4047,1.4204,1.4203,1.4202,1.4202,1.4201,1.3281,1.3342,1.3415,1.3499,1.3554,1.3616,1.3678,1.3724,1.3799,1.3892,1.391,1.4004,1.4074,1.419,1.4236,1.4309,1.4297,1.4323,1.4329,1.4335,1.4336,1.4186,1.4325,1.4325,1.4324,1.4324,1.4324,0,1.341,1.3457,1.3534,1.3627,1.3693,1.3694,1.3768,1.3822,1.3905,1.3969,1.404,1.4141,1.4224,1.4282,1.4366,1.4413,1.4419,1.4434,1.4431,1.444,1.4343,1.4319,1.4428,1.4428,1.4428,1.4428,1.4428,1.4428,1.3485,1.3588,1.3615,1.3744,1.379,1.3882,1.3924,1.398,1.4032,1.4144,1.4213,1.4251,1.4312,1.44,1.4476,1.4491,1.452,1.4536,1.455,1.4458,1.4447,1.4437,1.4415,1.4542,1.4542,1.4642,1.4643,1.4643]}]]